Вернуться в каталог

CZ-6A DEB

АктивенSSO
NORAD 54958·DEBRIS·🇨🇳 China

Запущен Nov 11, 2022 с Taiyuan Satellite Launch Center

Loading…

Ближайшие Пролёты (ближайшие 24 часа)

TLE

СвежийSource: Space-Track

Эпоха: Sep 14, 2026, 11:04 UTC

1 54958U 22151SX  26257.46128314  .00003353  00000-0  14407-2 0  9995
2 54958  98.8180 267.8079 0050580  47.6176 312.9268 14.24688188198127

Отслеживайте CZ-6A DEB в реальном времени с AllMySat

Download on the App Store